Location: Long Island Community Building
(39.9491°N, 99.5338°W)
Time: 02:38:43
(UTC+00:00)

Cosmos 1500 - Pass Details

Date: 06 December 2019
Orbit: 499 x 520 km, 82.5° (Epoch: 28 January)

Event Time Altitude Azimuth Distance (km) Brightness Sun altitude
Rises 23:40:42 0° 6° (N) 2,620 6.5 -5.6°
Reaches altitude 10° 23:43:12 10° 22° (NNE) 1,726 5.4 -6.0°
Maximum altitude 23:46:12 22° 75° (ENE) 1,142 4.3 -6.5°
Drops below altitude 10° 23:49:09 10° 128° (SE) 1,707 5.6 -7.1°
Sets 23:51:36 0° 143° (SE) 2,583 6.6 -7.5°
